Meadow Lake, CO

7:49 PM MST on November 22, 2017 (GMT -0700)
Meadow Lake

Weather History for KFLY - December, 2012

Change the Weather History Date:

Sunday, December 9, 2012

  Actual Average (KCOS) Record (KCOS)
Temperature  
Mean Temperature 8 °F -  
Max Temperature 18 °F 41 °F 70 °F (1957)
Min Temperature -1 °F 18 °F -27 °F (1919)
Degree Days  
Heating Degree Days 56    
Moisture  
Dew Point 4 °F    
Average Humidity 75    
Maximum Humidity 91    
Minimum Humidity 56    
Precipitation  
Precipitation 0.00 in - - ()
Sea Level Pressure  
Sea Level Pressure 29.99 in    
Wind  
Wind Speed 15 mph (NNW)    
Max Wind Speed 23 mph    
Max Gust Speed 31 mph    
Visibility 6 miles    
Events Snow    
Averages and records for this station are not official NWS values.
T = Trace of Precipitation, MM = Missing Value Source: NWS Daily Summary

Daily Weather History Graph

Daily Weather History Graph

Search for Another Location

Airport or City:

Trip Planner

Search our weather history database for the weather conditions in past years. The results will help you decide how hot, cold, wet, or windy it might be!

Date:

Astronomy

Dec. 09, 2012 Rise Set
Actual Time 7:05 AM MST 4:36 PM MST
Civil Twilight 6:35 AM MST 5:05 PM MST
Nautical Twilight 6:02 AM MST 5:39 PM MST
Astronomical Twilight 5:30 AM MST 6:11 PM MST
Moon 2:43 AM MST (12/9) 1:43 PM MST (12/9)
Length of Visible Light 10h 29m
Length of Day
9h 30m
Waning Crescent, 18% of the Moon is Illuminated
Dec 9
Waning Crescent
Dec 13
New
Dec 19
First Quarter
Dec 28
Full
Jan 4
Last Quarter

Hourly Weather History & Observations

Time (MST) Temp. Windchill Dew Point Humidity Pressure Visibility Wind Dir Wind Speed Gust Speed Precip Events Conditions
12:15 AM 18.1 °F 1.6 °F 14.0 °F 84% 29.84 in 1.8 mi NNE 20.7 mph 26.5 mph N/A Snow Light Snow
12:35 AM 17.4 °F 2.4 °F 13.1 °F 83% 29.85 in 4.0 mi NNE 16.1 mph 24.2 mph N/A Snow Light Snow
12:55 AM 17.2 °F 2.7 °F 13.1 °F 84% 29.85 in 10.0 mi NNE 15.0 mph 20.7 mph N/A Snow Light Snow
1:15 AM 17.1 °F 0.6 °F 12.4 °F 82% 29.84 in 7.0 mi NNE 19.6 mph 24.2 mph N/A Snow Light Snow
1:35 AM 16.3 °F 0.5 °F 12.2 °F 84% 29.85 in 1.2 mi NNE 17.3 mph 24.2 mph N/A Snow Light Snow
1:55 AM 15.8 °F -0.2 °F 12.6 °F 87% 29.85 in 0.2 mi NNE 17.3 mph - N/A Snow Snow
2:15 AM 15.4 °F 1.0 °F 12.7 °F 89% 29.84 in 0.5 mi NNE 13.8 mph - N/A Snow Snow
2:35 AM 15.3 °F -1.3 °F 12.2 °F 88% 29.85 in 0.5 mi NNE 18.4 mph 21.9 mph N/A Snow Snow
2:55 AM 15.3 °F 0.2 °F 11.8 °F 86% 29.86 in 0.8 mi North 15.0 mph 25.3 mph N/A Snow Light Snow
3:15 AM 15.3 °F -1.3 °F 11.8 °F 86% 29.86 in 0.5 mi North 18.4 mph 26.5 mph N/A Snow Light Snow
3:35 AM 15.3 °F 0.8 °F 11.3 °F 84% 29.86 in 1.2 mi North 13.8 mph 19.6 mph N/A Snow Light Snow
3:55 AM 15.1 °F 2.5 °F 11.1 °F 84% 29.87 in 1.0 mi North 10.4 mph 28.8 mph N/A Snow Light Snow
4:15 AM 14.9 °F -2.3 °F 11.1 °F 85% 29.87 in 1.8 mi North 19.6 mph 25.3 mph N/A Snow Light Snow
4:35 AM 14.9 °F -0.8 °F 11.1 °F 85% 29.88 in 1.8 mi North 16.1 mph 24.2 mph N/A Snow Light Snow
4:55 AM 14.7 °F -1.6 °F 10.8 °F 84% 29.88 in 1.5 mi North 17.3 mph 24.2 mph N/A Snow Light Snow
5:15 AM 14.9 °F -2.3 °F 10.2 °F 82% 29.89 in 4.0 mi North 19.6 mph 25.3 mph N/A Snow Light Snow
5:35 AM 14.7 °F -1.6 °F 10.2 °F 82% 29.90 in 2.5 mi North 17.3 mph 23.0 mph N/A Snow Light Snow
5:55 AM 14.5 °F -1.3 °F 10.2 °F 83% 29.91 in 2.5 mi North 16.1 mph 23.0 mph N/A Snow Light Snow
6:15 AM 14.4 °F -1.5 °F 9.7 °F 82% 29.91 in 3.0 mi North 16.1 mph 20.7 mph N/A Snow Light Snow
6:35 AM 14.0 °F -0.8 °F 8.8 °F 80% 29.94 in 2.5 mi North 13.8 mph - N/A Snow Light Snow
6:55 AM 14.0 °F -0.8 °F 8.2 °F 78% 29.94 in 4.0 mi North 13.8 mph 21.9 mph N/A Snow Light Snow
7:15 AM 13.5 °F 0.5 °F 6.6 °F 74% 29.96 in 7.0 mi North 10.4 mph 21.9 mph N/A Snow Light Snow
7:35 AM 13.1 °F -0.7 °F 6.4 °F 75% 29.96 in 7.0 mi North 11.5 mph 19.6 mph N/A Snow Light Snow
7:55 AM 12.7 °F -1.8 °F 7.3 °F 79% 29.98 in 3.0 mi North 12.7 mph 18.4 mph N/A Snow Light Snow
8:15 AM 12.9 °F -4.4 °F 6.8 °F 77% 29.99 in 3.0 mi North 18.4 mph 24.2 mph N/A Snow Light Snow
8:35 AM 12.7 °F -3.6 °F 6.8 °F 77% 30.00 in 2.0 mi North 16.1 mph 24.2 mph N/A Snow Light Snow
8:55 AM 12.7 °F -4.6 °F 6.6 °F 77% 30.00 in 2.0 mi North 18.4 mph 25.3 mph N/A Snow Light Snow
9:35 AM 12.0 °F -6.0 °F 5.7 °F 76% 30.01 in 2.0 mi North 19.6 mph 28.8 mph N/A   Haze
9:55 AM 12.0 °F -6.9 °F 5.0 °F 73% 30.00 in 3.0 mi North 21.9 mph 29.9 mph N/A   Haze
10:15 AM 12.2 °F -6.3 °F 4.8 °F 72% 30.02 in 4.0 mi North 20.7 mph 31.1 mph N/A   Haze
10:35 AM 12.6 °F -5.3 °F 5.7 °F 74% 30.03 in 4.0 mi North 19.6 mph 26.5 mph N/A   Haze
10:55 AM 12.7 °F -5.1 °F 5.7 °F 74% 30.02 in 4.0 mi North 19.6 mph 26.5 mph N/A   Haze
11:15 AM 12.7 °F -5.5 °F 6.3 °F 75% 30.02 in 3.0 mi North 20.7 mph 28.8 mph N/A   Haze
11:35 AM 13.1 °F -3.7 °F 6.4 °F 75% 30.02 in 3.0 mi North 17.3 mph 26.5 mph N/A   Haze
11:55 AM 13.6 °F -5.2 °F 5.5 °F 70% 30.01 in 7.0 mi North 23.0 mph 28.8 mph N/A   Overcast
12:15 PM 13.6 °F -4.8 °F 4.5 °F 67% 30.01 in 10.0 mi North 21.9 mph 28.8 mph N/A   Overcast
12:35 PM 13.8 °F -2.7 °F 5.5 °F 70% 30.01 in 10.0 mi North 17.3 mph 25.3 mph N/A   Overcast
12:55 PM 14.0 °F -2.5 °F 4.5 °F 66% 30.01 in 10.0 mi North 17.3 mph 31.1 mph N/A   Overcast
1:15 PM 14.4 °F -2.5 °F 4.1 °F 64% 30.01 in 10.0 mi North 18.4 mph 28.8 mph N/A   Overcast
1:35 PM 14.0 °F -3.9 °F 4.8 °F 67% 30.01 in 10.0 mi North 20.7 mph 27.6 mph N/A   Overcast
1:55 PM 14.4 °F -3.0 °F 3.4 °F 62% 30.01 in 10.0 mi North 19.6 mph 28.8 mph N/A   Mostly Cloudy
2:15 PM 14.2 °F -3.2 °F 1.8 °F 58% 30.01 in 10.0 mi North 19.6 mph 28.8 mph N/A   Overcast
2:35 PM 14.0 °F -3.4 °F 1.4 °F 57% 30.02 in 10.0 mi North 19.6 mph 31.1 mph N/A   Overcast
2:55 PM 14.0 °F -2.5 °F 1.0 °F 56% 30.04 in 10.0 mi North 17.3 mph 26.5 mph N/A   Overcast
3:15 PM 13.6 °F -1.9 °F 0.7 °F 56% 30.05 in 10.0 mi North 15.0 mph 21.9 mph N/A   Mostly Cloudy
3:35 PM 13.1 °F -2.0 °F 0.5 °F 57% 30.05 in 10.0 mi North 13.8 mph 18.4 mph N/A   Overcast
3:55 PM 12.2 °F -1.8 °F 0.5 °F 60% 30.06 in 10.0 mi North 11.5 mph - N/A   Overcast
4:15 PM 11.3 °F -2.9 °F -0.0 °F 60% 30.06 in 10.0 mi North 11.5 mph - N/A   Mostly Cloudy
4:35 PM 10.2 °F -1.7 °F -0.4 °F 62% 30.06 in 10.0 mi NNW 8.1 mph - N/A   Scattered Clouds
4:55 PM 9.5 °F -2.6 °F -0.8 °F 63% 30.07 in 10.0 mi NNW 8.1 mph - N/A   Scattered Clouds
5:15 PM 8.4 °F -3.9 °F -1.5 °F 64% 30.07 in 10.0 mi NNW 8.1 mph - N/A   Scattered Clouds
5:35 PM 7.3 °F -4.1 °F -2.2 °F 65% 30.08 in 10.0 mi NNW 6.9 mph - N/A   Scattered Clouds
5:55 PM 6.4 °F -5.2 °F -3.1 °F 65% 30.08 in 10.0 mi WNW 6.9 mph - N/A   Clear
6:15 PM 4.3 °F -9.0 °F -3.3 °F 71% 30.09 in 10.0 mi NW 8.1 mph - N/A   Clear
6:35 PM 4.5 °F -7.6 °F -2.9 °F 72% 30.09 in 10.0 mi NW 6.9 mph - N/A   Clear
6:55 PM 4.3 °F -7.8 °F -2.9 °F 72% 30.10 in 10.0 mi NNW 6.9 mph - N/A   Clear
7:15 PM 4.1 °F -9.2 °F -2.9 °F 73% 30.09 in 10.0 mi NW 8.1 mph - N/A   Clear
7:35 PM 3.4 °F -8.9 °F -2.6 °F 76% 30.09 in 10.0 mi NNW 6.9 mph - N/A   Clear
7:55 PM 3.7 °F -7.1 °F -1.8 °F 78% 30.08 in 10.0 mi NNW 5.8 mph - N/A   Clear
8:15 PM -0.4 °F -13.4 °F -5.1 °F 81% 30.08 in 10.0 mi WNW 6.9 mph - N/A   Clear
8:35 PM 1.6 °F -8.0 °F -3.1 °F 81% 30.07 in 10.0 mi NW 4.6 mph - N/A   Clear
8:55 PM 3.7 °F -5.5 °F -4.5 °F 69% 30.06 in 10.0 mi NW 4.6 mph - N/A   Clear
9:15 PM -1.3 °F -15.7 °F -6.0 °F 81% 30.05 in 10.0 mi SW 8.1 mph - N/A   Clear
9:35 PM -0.6 °F -14.9 °F -6.0 °F 78% 30.05 in 10.0 mi WSW 8.1 mph - N/A   Clear
9:55 PM -0.2 °F -14.4 °F -4.5 °F 82% 30.04 in 10.0 mi West 8.1 mph - N/A   Clear
10:15 PM -1.1 °F -14.3 °F -5.6 °F 81% 30.04 in 10.0 mi West 6.9 mph - N/A   Clear
10:35 PM 0.1 °F -11.4 °F -4.9 °F 79% 30.02 in 10.0 mi West 5.8 mph - N/A   Clear
10:55 PM 1.2 °F -8.5 °F -4.0 °F 79% 30.01 in 10.0 mi West 4.6 mph - N/A Snow Light Snow
11:15 PM 4.6 °F -6.0 °F 0.5 °F 83% 30.01 in 2.5 mi West 5.8 mph - N/A Snow Light Snow
11:35 PM 3.6 °F -8.7 °F 1.0 °F 89% 29.99 in 10.0 mi West 6.9 mph - N/A Snow Light Snow
11:55 PM 3.9 °F -8.2 °F 1.9 °F 91% 29.98 in 1.2 mi West 6.9 mph - N/A Snow Light Snow